<?xml version="1.0" encoding="UTF-8"?>
<gpx
version="1.1"
creator="Kashmir3D 9.350 - http://www.kashmir3d.com"
xmlns:xsi="http://www.w3.org/2001/XMLSchema-instance"
xmlns="http://www.topografix.com/GPX/1/1"
xmlns:kashmir3d="http://www.kashmir3d.com/namespace/kashmir3d"
xsi:schemaLocation="http://www.topografix.com/GPX/1/1 http://www.topografix.com/GPX/1/1/gpx.xsd
	http://www.kashmir3d.com/namespace/kashmir3d http://www.kashmir3d.com/namespace/kashmir3d.xsd">
<trk>
 <name>IWAWAKISAN.KML(岩湧山)</name>
 <number>1</number>
 <extensions>
 <kashmir3d:line_color>0000ff</kashmir3d:line_color>
 <kashmir3d:line_size>3</kashmir3d:line_size>
 <kashmir3d:line_style>1</kashmir3d:line_style>
 <kashmir3d:icon>901001</kashmir3d:icon>
 </extensions>
<trkseg>
<trkpt lat="34.383476" lon="135.558780">
 <ele>406.4</ele>
 <time>2020-03-24T13:22:55Z</time>
</trkpt>
<trkpt lat="34.383390" lon="135.558673">
 <ele>408.8</ele>
 <time>2020-03-24T13:22:55Z</time>
</trkpt>
<trkpt lat="34.383150" lon="135.558576">
 <ele>412.9</ele>
 <time>2020-03-24T13:22:55Z</time>
</trkpt>
<trkpt lat="34.382918" lon="135.558404">
 <ele>419.6</ele>
 <time>2020-03-24T13:22:55Z</time>
</trkpt>
<trkpt lat="34.382704" lon="135.558201">
 <ele>422.3</ele>
 <time>2020-03-24T13:22:55Z</time>
</trkpt>
<trkpt lat="34.382420" lon="135.557975">
 <ele>427.1</ele>
 <time>2020-03-24T13:22:55Z</time>
</trkpt>
<trkpt lat="34.382317" lon="135.557846">
 <ele>429.7</ele>
 <time>2020-03-24T13:22:55Z</time>
</trkpt>
<trkpt lat="34.382266" lon="135.557696">
 <ele>430.8</ele>
 <time>2020-03-24T13:22:56Z</time>
</trkpt>
<trkpt lat="34.382232" lon="135.557482">
 <ele>433.9</ele>
 <time>2020-03-24T13:22:56Z</time>
</trkpt>
<trkpt lat="34.382180" lon="135.557278">
 <ele>437</ele>
 <time>2020-03-24T13:22:56Z</time>
</trkpt>
<trkpt lat="34.382129" lon="135.557053">
 <ele>439.9</ele>
 <time>2020-03-24T13:22:56Z</time>
</trkpt>
<trkpt lat="34.382120" lon="135.556870">
 <ele>442.7</ele>
 <time>2020-03-24T13:22:56Z</time>
</trkpt>
<trkpt lat="34.382103" lon="135.556720">
 <ele>446.7</ele>
 <time>2020-03-24T13:22:56Z</time>
</trkpt>
<trkpt lat="34.382051" lon="135.556634">
 <ele>449.2</ele>
 <time>2020-03-24T13:22:56Z</time>
</trkpt>
<trkpt lat="34.381957" lon="135.556602">
 <ele>453.2</ele>
 <time>2020-03-24T13:22:56Z</time>
</trkpt>
<trkpt lat="34.381905" lon="135.556688">
 <ele>455.4</ele>
 <time>2020-03-24T13:22:57Z</time>
</trkpt>
<trkpt lat="34.381914" lon="135.557020">
 <ele>454.9</ele>
 <time>2020-03-24T13:22:57Z</time>
</trkpt>
<trkpt lat="34.381940" lon="135.557374">
 <ele>456.5</ele>
 <time>2020-03-24T13:22:57Z</time>
</trkpt>
<trkpt lat="34.381957" lon="135.557535">
 <ele>455.8</ele>
 <time>2020-03-24T13:22:57Z</time>
</trkpt>
<trkpt lat="34.381940" lon="135.557696">
 <ele>457.7</ele>
 <time>2020-03-24T13:22:57Z</time>
</trkpt>
<trkpt lat="34.381820" lon="135.557943">
 <ele>461</ele>
 <time>2020-03-24T13:22:57Z</time>
</trkpt>
<trkpt lat="34.381674" lon="135.558061">
 <ele>463.6</ele>
 <time>2020-03-24T13:22:57Z</time>
</trkpt>
<trkpt lat="34.381588" lon="135.558083">
 <ele>465</ele>
 <time>2020-03-24T13:22:57Z</time>
</trkpt>
<trkpt lat="34.381519" lon="135.558007">
 <ele>465.2</ele>
 <time>2020-03-24T13:22:58Z</time>
</trkpt>
<trkpt lat="34.381562" lon="135.557836">
 <ele>465</ele>
 <time>2020-03-24T13:22:58Z</time>
</trkpt>
<trkpt lat="34.381605" lon="135.557664">
 <ele>466.7</ele>
 <time>2020-03-24T13:22:58Z</time>
</trkpt>
<trkpt lat="34.381639" lon="135.557321">
 <ele>471</ele>
 <time>2020-03-24T13:22:58Z</time>
</trkpt>
<trkpt lat="34.381639" lon="135.557213">
 <ele>471.5</ele>
 <time>2020-03-24T13:22:58Z</time>
</trkpt>
<trkpt lat="34.381579" lon="135.557149">
 <ele>474.6</ele>
 <time>2020-03-24T13:22:58Z</time>
</trkpt>
<trkpt lat="34.381476" lon="135.557278">
 <ele>476.8</ele>
 <time>2020-03-24T13:22:58Z</time>
</trkpt>
<trkpt lat="34.381382" lon="135.557471">
 <ele>477.7</ele>
 <time>2020-03-24T13:22:59Z</time>
</trkpt>
<trkpt lat="34.381339" lon="135.557643">
 <ele>478.8</ele>
 <time>2020-03-24T13:22:59Z</time>
</trkpt>
<trkpt lat="34.381287" lon="135.557696">
 <ele>479.7</ele>
 <time>2020-03-24T13:22:59Z</time>
</trkpt>
<trkpt lat="34.381236" lon="135.557696">
 <ele>481</ele>
 <time>2020-03-24T13:22:59Z</time>
</trkpt>
<trkpt lat="34.381202" lon="135.557610">
 <ele>483.1</ele>
 <time>2020-03-24T13:22:59Z</time>
</trkpt>
<trkpt lat="34.381202" lon="135.557471">
 <ele>484.9</ele>
 <time>2020-03-24T13:22:59Z</time>
</trkpt>
<trkpt lat="34.381227" lon="135.557246">
 <ele>489</ele>
 <time>2020-03-24T13:22:59Z</time>
</trkpt>
<trkpt lat="34.381253" lon="135.557063">
 <ele>490.2</ele>
 <time>2020-03-24T13:22:59Z</time>
</trkpt>
<trkpt lat="34.381262" lon="135.556870">
 <ele>491.6</ele>
 <time>2020-03-24T13:23:00Z</time>
</trkpt>
<trkpt lat="34.381176" lon="135.556645">
 <ele>495.3</ele>
 <time>2020-03-24T13:23:00Z</time>
</trkpt>
<trkpt lat="34.381039" lon="135.556452">
 <ele>499.1</ele>
 <time>2020-03-24T13:23:00Z</time>
</trkpt>
<trkpt lat="34.380893" lon="135.556334">
 <ele>503.2</ele>
 <time>2020-03-24T13:23:00Z</time>
</trkpt>
<trkpt lat="34.380747" lon="135.556237">
 <ele>507.8</ele>
 <time>2020-03-24T13:23:00Z</time>
</trkpt>
<trkpt lat="34.380567" lon="135.556291">
 <ele>510.4</ele>
 <time>2020-03-24T13:23:00Z</time>
</trkpt>
<trkpt lat="34.380438" lon="135.556366">
 <ele>511.2</ele>
 <time>2020-03-24T13:23:00Z</time>
</trkpt>
<trkpt lat="34.380335" lon="135.556387">
 <ele>513.8</ele>
 <time>2020-03-24T13:23:00Z</time>
</trkpt>
<trkpt lat="34.380292" lon="135.556291">
 <ele>516.3</ele>
 <time>2020-03-24T13:23:01Z</time>
</trkpt>
<trkpt lat="34.380352" lon="135.556141">
 <ele>517.6</ele>
 <time>2020-03-24T13:23:01Z</time>
</trkpt>
<trkpt lat="34.380524" lon="135.556066">
 <ele>518.2</ele>
 <time>2020-03-24T13:23:01Z</time>
</trkpt>
<trkpt lat="34.380644" lon="135.556033">
 <ele>519.2</ele>
 <time>2020-03-24T13:23:01Z</time>
</trkpt>
<trkpt lat="34.380764" lon="135.555926">
 <ele>525</ele>
 <time>2020-03-24T13:23:01Z</time>
</trkpt>
<trkpt lat="34.380738" lon="135.555840">
 <ele>531.4</ele>
 <time>2020-03-24T13:23:01Z</time>
</trkpt>
<trkpt lat="34.380730" lon="135.555733">
 <ele>539.6</ele>
 <time>2020-03-24T13:23:01Z</time>
</trkpt>
<trkpt lat="34.380704" lon="135.555572">
 <ele>551.6</ele>
 <time>2020-03-24T13:23:02Z</time>
</trkpt>
<trkpt lat="34.380678" lon="135.555368">
 <ele>559.7</ele>
 <time>2020-03-24T13:23:02Z</time>
</trkpt>
<trkpt lat="34.380644" lon="135.555207">
 <ele>562.3</ele>
 <time>2020-03-24T13:23:02Z</time>
</trkpt>
<trkpt lat="34.380584" lon="135.555143">
 <ele>564.3</ele>
 <time>2020-03-24T13:23:02Z</time>
</trkpt>
<trkpt lat="34.380455" lon="135.555111">
 <ele>565.9</ele>
 <time>2020-03-24T13:23:02Z</time>
</trkpt>
<trkpt lat="34.380343" lon="135.555078">
 <ele>565.5</ele>
 <time>2020-03-24T13:23:02Z</time>
</trkpt>
<trkpt lat="34.380197" lon="135.555089">
 <ele>564.5</ele>
 <time>2020-03-24T13:23:02Z</time>
</trkpt>
<trkpt lat="34.380069" lon="135.555089">
 <ele>566.6</ele>
 <time>2020-03-24T13:23:02Z</time>
</trkpt>
<trkpt lat="34.379974" lon="135.555078">
 <ele>571.3</ele>
 <time>2020-03-24T13:23:03Z</time>
</trkpt>
<trkpt lat="34.379846" lon="135.555100">
 <ele>578</ele>
 <time>2020-03-24T13:23:03Z</time>
</trkpt>
<trkpt lat="34.379725" lon="135.555111">
 <ele>584.9</ele>
 <time>2020-03-24T13:23:03Z</time>
</trkpt>
<trkpt lat="34.379597" lon="135.555175">
 <ele>596.4</ele>
 <time>2020-03-24T13:23:03Z</time>
</trkpt>
<trkpt lat="34.379519" lon="135.555207">
 <ele>600.6</ele>
 <time>2020-03-24T13:23:03Z</time>
</trkpt>
<trkpt lat="34.379399" lon="135.555132">
 <ele>606.8</ele>
 <time>2020-03-24T13:23:03Z</time>
</trkpt>
<trkpt lat="34.379322" lon="135.555132">
 <ele>610</ele>
 <time>2020-03-24T13:23:03Z</time>
</trkpt>
<trkpt lat="34.379245" lon="135.554939">
 <ele>616.5</ele>
 <time>2020-03-24T13:23:04Z</time>
</trkpt>
<trkpt lat="34.379185" lon="135.554800">
 <ele>620.4</ele>
 <time>2020-03-24T13:23:04Z</time>
</trkpt>
<trkpt lat="34.379133" lon="135.554714">
 <ele>624.3</ele>
 <time>2020-03-24T13:23:04Z</time>
</trkpt>
<trkpt lat="34.379150" lon="135.554596">
 <ele>623.8</ele>
 <time>2020-03-24T13:23:04Z</time>
</trkpt>
<trkpt lat="34.379073" lon="135.554521">
 <ele>628.3</ele>
 <time>2020-03-24T13:23:04Z</time>
</trkpt>
<trkpt lat="34.378936" lon="135.554478">
 <ele>631.9</ele>
 <time>2020-03-24T13:23:04Z</time>
</trkpt>
<trkpt lat="34.378747" lon="135.554445">
 <ele>641.9</ele>
 <time>2020-03-24T13:23:04Z</time>
</trkpt>
<trkpt lat="34.378575" lon="135.554403">
 <ele>649.2</ele>
 <time>2020-03-24T13:23:04Z</time>
</trkpt>
<trkpt lat="34.378498" lon="135.554403">
 <ele>652</ele>
 <time>2020-03-24T13:23:05Z</time>
</trkpt>
<trkpt lat="34.378421" lon="135.554403">
 <ele>654.6</ele>
 <time>2020-03-24T13:23:05Z</time>
</trkpt>
<trkpt lat="34.378326" lon="135.554403">
 <ele>657.7</ele>
 <time>2020-03-24T13:23:05Z</time>
</trkpt>
<trkpt lat="34.378180" lon="135.554370">
 <ele>664.8</ele>
 <time>2020-03-24T13:23:05Z</time>
</trkpt>
<trkpt lat="34.378052" lon="135.554349">
 <ele>669.1</ele>
 <time>2020-03-24T13:23:05Z</time>
</trkpt>
<trkpt lat="34.377949" lon="135.554370">
 <ele>673.3</ele>
 <time>2020-03-24T13:23:05Z</time>
</trkpt>
<trkpt lat="34.377794" lon="135.554360">
 <ele>681.6</ele>
 <time>2020-03-24T13:23:05Z</time>
</trkpt>
<trkpt lat="34.377674" lon="135.554338">
 <ele>685.8</ele>
 <time>2020-03-24T13:23:06Z</time>
</trkpt>
<trkpt lat="34.377545" lon="135.554338">
 <ele>693</ele>
 <time>2020-03-24T13:23:06Z</time>
</trkpt>
<trkpt lat="34.377399" lon="135.554317">
 <ele>700.8</ele>
 <time>2020-03-24T13:23:06Z</time>
</trkpt>
<trkpt lat="34.377253" lon="135.554327">
 <ele>706.5</ele>
 <time>2020-03-24T13:23:06Z</time>
</trkpt>
<trkpt lat="34.377150" lon="135.554327">
 <ele>709.7</ele>
 <time>2020-03-24T13:23:06Z</time>
</trkpt>
<trkpt lat="34.376970" lon="135.554403">
 <ele>716.3</ele>
 <time>2020-03-24T13:23:06Z</time>
</trkpt>
<trkpt lat="34.376902" lon="135.554521">
 <ele>722.9</ele>
 <time>2020-03-24T13:23:06Z</time>
</trkpt>
<trkpt lat="34.376824" lon="135.554606">
 <ele>727.4</ele>
 <time>2020-03-24T13:23:06Z</time>
</trkpt>
<trkpt lat="34.376721" lon="135.554800">
 <ele>734</ele>
 <time>2020-03-24T13:23:07Z</time>
</trkpt>
<trkpt lat="34.376661" lon="135.554939">
 <ele>737.5</ele>
 <time>2020-03-24T13:23:07Z</time>
</trkpt>
<trkpt lat="34.376610" lon="135.555078">
 <ele>737</ele>
 <time>2020-03-24T13:23:07Z</time>
</trkpt>
<trkpt lat="34.376558" lon="135.555196">
 <ele>737.7</ele>
 <time>2020-03-24T13:23:07Z</time>
</trkpt>
<trkpt lat="34.376507" lon="135.555250">
 <ele>738.4</ele>
 <time>2020-03-24T13:23:07Z</time>
</trkpt>
<trkpt lat="34.376464" lon="135.555261">
 <ele>740.8</ele>
 <time>2020-03-24T13:23:07Z</time>
</trkpt>
<trkpt lat="34.376421" lon="135.555186">
 <ele>746.6</ele>
 <time>2020-03-24T13:23:07Z</time>
</trkpt>
<trkpt lat="34.376438" lon="135.555025">
 <ele>750.6</ele>
 <time>2020-03-24T13:23:08Z</time>
</trkpt>
<trkpt lat="34.376455" lon="135.554885">
 <ele>750.6</ele>
 <time>2020-03-24T13:23:08Z</time>
</trkpt>
<trkpt lat="34.376455" lon="135.554789">
 <ele>750.5</ele>
 <time>2020-03-24T13:23:08Z</time>
</trkpt>
<trkpt lat="34.376352" lon="135.554789">
 <ele>756.7</ele>
 <time>2020-03-24T13:23:08Z</time>
</trkpt>
<trkpt lat="34.376284" lon="135.554778">
 <ele>760.7</ele>
 <time>2020-03-24T13:23:08Z</time>
</trkpt>
<trkpt lat="34.376223" lon="135.554853">
 <ele>766.4</ele>
 <time>2020-03-24T13:23:08Z</time>
</trkpt>
<trkpt lat="34.376103" lon="135.554875">
 <ele>772.4</ele>
 <time>2020-03-24T13:23:08Z</time>
</trkpt>
<trkpt lat="34.376069" lon="135.554982">
 <ele>775.7</ele>
 <time>2020-03-24T13:23:08Z</time>
</trkpt>
<trkpt lat="34.375966" lon="135.554982">
 <ele>782</ele>
 <time>2020-03-24T13:23:09Z</time>
</trkpt>
<trkpt lat="34.375923" lon="135.554928">
 <ele>782.8</ele>
 <time>2020-03-24T13:23:09Z</time>
</trkpt>
<trkpt lat="34.375820" lon="135.554939">
 <ele>788.4</ele>
 <time>2020-03-24T13:23:09Z</time>
</trkpt>
<trkpt lat="34.375674" lon="135.554960">
 <ele>796.8</ele>
 <time>2020-03-24T13:23:09Z</time>
</trkpt>
<trkpt lat="34.375571" lon="135.554939">
 <ele>800.6</ele>
 <time>2020-03-24T13:23:09Z</time>
</trkpt>
<trkpt lat="34.375417" lon="135.554939">
 <ele>812.6</ele>
 <time>2020-03-24T13:23:09Z</time>
</trkpt>
<trkpt lat="34.375297" lon="135.554960">
 <ele>820</ele>
 <time>2020-03-24T13:23:09Z</time>
</trkpt>
<trkpt lat="34.375194" lon="135.554971">
 <ele>826.2</ele>
 <time>2020-03-24T13:23:09Z</time>
</trkpt>
<trkpt lat="34.375125" lon="135.554982">
 <ele>830.8</ele>
 <time>2020-03-24T13:23:10Z</time>
</trkpt>
<trkpt lat="34.375099" lon="135.555046">
 <ele>833</ele>
 <time>2020-03-24T13:23:10Z</time>
</trkpt>
<trkpt lat="34.375065" lon="135.555068">
 <ele>834.6</ele>
 <time>2020-03-24T13:23:10Z</time>
</trkpt>
<trkpt lat="34.374936" lon="135.555036">
 <ele>840.9</ele>
 <time>2020-03-24T13:23:10Z</time>
</trkpt>
<trkpt lat="34.374867" lon="135.554993">
 <ele>844.6</ele>
 <time>2020-03-24T13:23:10Z</time>
</trkpt>
<trkpt lat="34.374782" lon="135.555014">
 <ele>850.5</ele>
 <time>2020-03-24T13:23:10Z</time>
</trkpt>
<trkpt lat="34.374713" lon="135.555036">
 <ele>856</ele>
 <time>2020-03-24T13:23:10Z</time>
</trkpt>
<trkpt lat="34.374644" lon="135.554971">
 <ele>861.7</ele>
 <time>2020-03-24T13:23:11Z</time>
</trkpt>
<trkpt lat="34.374593" lon="135.555014">
 <ele>864.3</ele>
 <time>2020-03-24T13:23:11Z</time>
</trkpt>
<trkpt lat="34.374524" lon="135.555014">
 <ele>868.8</ele>
 <time>2020-03-24T13:23:11Z</time>
</trkpt>
<trkpt lat="34.374430" lon="135.555036">
 <ele>871.1</ele>
 <time>2020-03-24T13:23:11Z</time>
</trkpt>
<trkpt lat="34.374361" lon="135.555036">
 <ele>871.2</ele>
 <time>2020-03-24T13:23:11Z</time>
</trkpt>
<trkpt lat="34.374318" lon="135.554918">
 <ele>870.8</ele>
 <time>2020-03-24T13:23:11Z</time>
</trkpt>
<trkpt lat="34.374318" lon="135.554821">
 <ele>870.7</ele>
 <time>2020-03-24T13:23:11Z</time>
</trkpt>
<trkpt lat="34.374241" lon="135.554671">
 <ele>869.6</ele>
 <time>2020-03-24T13:23:11Z</time>
</trkpt>
<trkpt lat="34.374206" lon="135.554553">
 <ele>868.2</ele>
 <time>2020-03-24T13:23:12Z</time>
</trkpt>
<trkpt lat="34.374198" lon="135.554403">
 <ele>865.1</ele>
 <time>2020-03-24T13:23:12Z</time>
</trkpt>
<trkpt lat="34.374206" lon="135.554285">
 <ele>862.3</ele>
 <time>2020-03-24T13:23:12Z</time>
</trkpt>
<trkpt lat="34.374206" lon="135.554145">
 <ele>857.9</ele>
 <time>2020-03-24T13:23:12Z</time>
</trkpt>
<trkpt lat="34.374241" lon="135.554027">
 <ele>850.7</ele>
 <time>2020-03-24T13:23:12Z</time>
</trkpt>
<trkpt lat="34.374309" lon="135.553834">
 <ele>848.3</ele>
 <time>2020-03-24T13:23:12Z</time>
</trkpt>
<trkpt lat="34.374387" lon="135.553727">
 <ele>849.3</ele>
 <time>2020-03-24T13:23:12Z</time>
</trkpt>
<trkpt lat="34.374370" lon="135.553619">
 <ele>850.6</ele>
 <time>2020-03-24T13:23:12Z</time>
</trkpt>
<trkpt lat="34.374344" lon="135.553448">
 <ele>853.6</ele>
 <time>2020-03-24T13:23:13Z</time>
</trkpt>
<trkpt lat="34.374318" lon="135.553330">
 <ele>855.7</ele>
 <time>2020-03-24T13:23:13Z</time>
</trkpt>
<trkpt lat="34.374309" lon="135.553255">
 <ele>857</ele>
 <time>2020-03-24T13:23:13Z</time>
</trkpt>
<trkpt lat="34.374309" lon="135.553126">
 <ele>858.9</ele>
 <time>2020-03-24T13:23:13Z</time>
</trkpt>
<trkpt lat="34.374241" lon="135.552976">
 <ele>862.1</ele>
 <time>2020-03-24T13:23:13Z</time>
</trkpt>
<trkpt lat="34.374224" lon="135.552868">
 <ele>864.7</ele>
 <time>2020-03-24T13:23:13Z</time>
</trkpt>
<trkpt lat="34.374224" lon="135.552804">
 <ele>865.9</ele>
 <time>2020-03-24T13:23:13Z</time>
</trkpt>
<trkpt lat="34.374206" lon="135.552718">
 <ele>869.5</ele>
 <time>2020-03-24T13:23:13Z</time>
</trkpt>
<trkpt lat="34.374232" lon="135.552579">
 <ele>873.6</ele>
 <time>2020-03-24T13:23:14Z</time>
</trkpt>
<trkpt lat="34.374232" lon="135.552461">
 <ele>878.2</ele>
 <time>2020-03-24T13:23:14Z</time>
</trkpt>
<trkpt lat="34.374224" lon="135.552375">
 <ele>880.9</ele>
 <time>2020-03-24T13:23:14Z</time>
</trkpt>
<trkpt lat="34.374198" lon="135.552214">
 <ele>885.9</ele>
 <time>2020-03-24T13:23:14Z</time>
</trkpt>
<trkpt lat="34.374155" lon="135.552064">
 <ele>889.4</ele>
 <time>2020-03-24T13:23:14Z</time>
</trkpt>
<trkpt lat="34.374146" lon="135.551935">
 <ele>891.3</ele>
 <time>2020-03-24T13:23:14Z</time>
</trkpt>
<trkpt lat="34.374121" lon="135.551742">
 <ele>892.6</ele>
 <time>2020-03-24T13:23:14Z</time>
</trkpt>
<trkpt lat="34.374112" lon="135.551581">
 <ele>894</ele>
 <time>2020-03-24T13:23:15Z</time>
</trkpt>
<trkpt lat="34.374112" lon="135.551377">
 <ele>894.6</ele>
 <time>2020-03-24T13:23:15Z</time>
</trkpt>
<trkpt lat="34.374078" lon="135.551227">
 <ele>895.3</ele>
 <time>2020-03-24T13:23:15Z</time>
</trkpt>
<trkpt lat="34.374078" lon="135.551011">
 <ele>896.9</ele>
 <time>2020-03-24T13:23:15Z</time>
</trkpt>
<trkpt lat="34.374086" lon="135.550883">
 <ele>897.1</ele>
 <time>2020-03-24T13:23:15Z</time>
</trkpt>
<trkpt lat="34.374112" lon="135.550787">
 <ele>896.3</ele>
 <time>2020-03-24T13:23:15Z</time>
</trkpt>
<trkpt lat="34.374121" lon="135.550680">
 <ele>895</ele>
 <time>2020-03-24T13:23:15Z</time>
</trkpt>
<trkpt lat="34.374112" lon="135.550594">
 <ele>893.8</ele>
 <time>2020-03-24T13:23:15Z</time>
</trkpt>
<trkpt lat="34.374198" lon="135.550454">
 <ele>891.5</ele>
 <time>2020-03-24T13:23:16Z</time>
</trkpt>
<trkpt lat="34.374241" lon="135.550368">
 <ele>891.4</ele>
 <time>2020-03-24T13:23:16Z</time>
</trkpt>
<trkpt lat="34.374275" lon="135.550197">
 <ele>892.5</ele>
 <time>2020-03-24T13:23:16Z</time>
</trkpt>
<trkpt lat="34.374241" lon="135.550068">
 <ele>893.2</ele>
 <time>2020-03-24T13:23:16Z</time>
</trkpt>
<trkpt lat="34.374241" lon="135.549982">
 <ele>893</ele>
 <time>2020-03-24T13:23:16Z</time>
</trkpt>
<trkpt lat="34.374241" lon="135.550068">
 <ele>893.2</ele>
 <time>2020-03-24T13:23:16Z</time>
</trkpt>
<trkpt lat="34.374275" lon="135.550197">
 <ele>892.5</ele>
 <time>2020-03-24T13:23:16Z</time>
</trkpt>
<trkpt lat="34.374241" lon="135.550368">
 <ele>891.4</ele>
 <time>2020-03-24T13:23:17Z</time>
</trkpt>
<trkpt lat="34.374198" lon="135.550454">
 <ele>891.5</ele>
 <time>2020-03-24T13:23:17Z</time>
</trkpt>
<trkpt lat="34.374112" lon="135.550594">
 <ele>893.8</ele>
 <time>2020-03-24T13:23:17Z</time>
</trkpt>
<trkpt lat="34.374121" lon="135.550680">
 <ele>895</ele>
 <time>2020-03-24T13:23:17Z</time>
</trkpt>
<trkpt lat="34.374112" lon="135.550787">
 <ele>896.3</ele>
 <time>2020-03-24T13:23:17Z</time>
</trkpt>
<trkpt lat="34.374086" lon="135.550883">
 <ele>897.1</ele>
 <time>2020-03-24T13:23:17Z</time>
</trkpt>
<trkpt lat="34.374078" lon="135.551011">
 <ele>896.9</ele>
 <time>2020-03-24T13:23:17Z</time>
</trkpt>
<trkpt lat="34.374078" lon="135.551227">
 <ele>895.3</ele>
 <time>2020-03-24T13:23:17Z</time>
</trkpt>
<trkpt lat="34.374112" lon="135.551377">
 <ele>894.6</ele>
 <time>2020-03-24T13:23:18Z</time>
</trkpt>
<trkpt lat="34.374112" lon="135.551581">
 <ele>894</ele>
 <time>2020-03-24T13:23:18Z</time>
</trkpt>
<trkpt lat="34.374121" lon="135.551742">
 <ele>892.6</ele>
 <time>2020-03-24T13:23:18Z</time>
</trkpt>
<trkpt lat="34.374146" lon="135.551935">
 <ele>891.3</ele>
 <time>2020-03-24T13:23:18Z</time>
</trkpt>
<trkpt lat="34.374155" lon="135.552064">
 <ele>889.4</ele>
 <time>2020-03-24T13:23:18Z</time>
</trkpt>
<trkpt lat="34.374198" lon="135.552214">
 <ele>885.9</ele>
 <time>2020-03-24T13:23:18Z</time>
</trkpt>
<trkpt lat="34.374224" lon="135.552375">
 <ele>880.9</ele>
 <time>2020-03-24T13:23:18Z</time>
</trkpt>
<trkpt lat="34.374232" lon="135.552461">
 <ele>878.2</ele>
 <time>2020-03-24T13:23:18Z</time>
</trkpt>
<trkpt lat="34.374232" lon="135.552579">
 <ele>873.6</ele>
 <time>2020-03-24T13:23:19Z</time>
</trkpt>
<trkpt lat="34.374206" lon="135.552718">
 <ele>869.5</ele>
 <time>2020-03-24T13:23:19Z</time>
</trkpt>
<trkpt lat="34.374224" lon="135.552804">
 <ele>865.9</ele>
 <time>2020-03-24T13:23:19Z</time>
</trkpt>
<trkpt lat="34.374224" lon="135.552868">
 <ele>864.7</ele>
 <time>2020-03-24T13:23:19Z</time>
</trkpt>
<trkpt lat="34.374241" lon="135.552976">
 <ele>862.1</ele>
 <time>2020-03-24T13:23:19Z</time>
</trkpt>
<trkpt lat="34.374309" lon="135.553126">
 <ele>858.9</ele>
 <time>2020-03-24T13:23:19Z</time>
</trkpt>
<trkpt lat="34.374309" lon="135.553255">
 <ele>857</ele>
 <time>2020-03-24T13:23:19Z</time>
</trkpt>
<trkpt lat="34.374318" lon="135.553330">
 <ele>855.7</ele>
 <time>2020-03-24T13:23:20Z</time>
</trkpt>
<trkpt lat="34.374344" lon="135.553448">
 <ele>853.6</ele>
 <time>2020-03-24T13:23:20Z</time>
</trkpt>
<trkpt lat="34.374370" lon="135.553619">
 <ele>850.6</ele>
 <time>2020-03-24T13:23:20Z</time>
</trkpt>
<trkpt lat="34.374387" lon="135.553727">
 <ele>849.3</ele>
 <time>2020-03-24T13:23:20Z</time>
</trkpt>
<trkpt lat="34.374309" lon="135.553834">
 <ele>848.3</ele>
 <time>2020-03-24T13:23:20Z</time>
</trkpt>
<trkpt lat="34.374241" lon="135.554027">
 <ele>850.7</ele>
 <time>2020-03-24T13:23:20Z</time>
</trkpt>
<trkpt lat="34.374206" lon="135.554145">
 <ele>857.9</ele>
 <time>2020-03-24T13:23:20Z</time>
</trkpt>
<trkpt lat="34.374206" lon="135.554285">
 <ele>862.3</ele>
 <time>2020-03-24T13:23:20Z</time>
</trkpt>
<trkpt lat="34.374198" lon="135.554403">
 <ele>865.1</ele>
 <time>2020-03-24T13:23:21Z</time>
</trkpt>
<trkpt lat="34.374206" lon="135.554553">
 <ele>868.2</ele>
 <time>2020-03-24T13:23:21Z</time>
</trkpt>
<trkpt lat="34.374241" lon="135.554671">
 <ele>869.6</ele>
 <time>2020-03-24T13:23:21Z</time>
</trkpt>
<trkpt lat="34.374318" lon="135.554821">
 <ele>870.7</ele>
 <time>2020-03-24T13:23:21Z</time>
</trkpt>
<trkpt lat="34.374318" lon="135.554918">
 <ele>870.8</ele>
 <time>2020-03-24T13:23:21Z</time>
</trkpt>
<trkpt lat="34.374361" lon="135.555036">
 <ele>871.2</ele>
 <time>2020-03-24T13:23:21Z</time>
</trkpt>
<trkpt lat="34.374430" lon="135.555036">
 <ele>871.1</ele>
 <time>2020-03-24T13:23:21Z</time>
</trkpt>
<trkpt lat="34.374524" lon="135.555014">
 <ele>868.8</ele>
 <time>2020-03-24T13:23:21Z</time>
</trkpt>
<trkpt lat="34.374593" lon="135.555014">
 <ele>864.3</ele>
 <time>2020-03-24T13:23:22Z</time>
</trkpt>
<trkpt lat="34.374644" lon="135.554971">
 <ele>861.7</ele>
 <time>2020-03-24T13:23:22Z</time>
</trkpt>
<trkpt lat="34.374713" lon="135.555036">
 <ele>856</ele>
 <time>2020-03-24T13:23:22Z</time>
</trkpt>
<trkpt lat="34.374782" lon="135.555014">
 <ele>850.5</ele>
 <time>2020-03-24T13:23:22Z</time>
</trkpt>
<trkpt lat="34.374867" lon="135.554993">
 <ele>844.6</ele>
 <time>2020-03-24T13:23:22Z</time>
</trkpt>
<trkpt lat="34.374936" lon="135.555036">
 <ele>840.9</ele>
 <time>2020-03-24T13:23:22Z</time>
</trkpt>
<trkpt lat="34.375065" lon="135.555068">
 <ele>834.6</ele>
 <time>2020-03-24T13:23:22Z</time>
</trkpt>
<trkpt lat="34.375099" lon="135.555046">
 <ele>833</ele>
 <time>2020-03-24T13:23:22Z</time>
</trkpt>
<trkpt lat="34.375125" lon="135.554982">
 <ele>830.8</ele>
 <time>2020-03-24T13:23:23Z</time>
</trkpt>
<trkpt lat="34.375194" lon="135.554971">
 <ele>826.2</ele>
 <time>2020-03-24T13:23:23Z</time>
</trkpt>
<trkpt lat="34.375297" lon="135.554960">
 <ele>820</ele>
 <time>2020-03-24T13:23:23Z</time>
</trkpt>
<trkpt lat="34.375417" lon="135.554939">
 <ele>812.6</ele>
 <time>2020-03-24T13:23:23Z</time>
</trkpt>
<trkpt lat="34.375571" lon="135.554939">
 <ele>800.6</ele>
 <time>2020-03-24T13:23:23Z</time>
</trkpt>
<trkpt lat="34.375674" lon="135.554960">
 <ele>796.8</ele>
 <time>2020-03-24T13:23:23Z</time>
</trkpt>
<trkpt lat="34.375820" lon="135.554939">
 <ele>788.4</ele>
 <time>2020-03-24T13:23:23Z</time>
</trkpt>
<trkpt lat="34.375923" lon="135.554928">
 <ele>782.8</ele>
 <time>2020-03-24T13:23:24Z</time>
</trkpt>
<trkpt lat="34.375966" lon="135.554982">
 <ele>782</ele>
 <time>2020-03-24T13:23:24Z</time>
</trkpt>
<trkpt lat="34.376069" lon="135.554982">
 <ele>775.7</ele>
 <time>2020-03-24T13:23:24Z</time>
</trkpt>
<trkpt lat="34.376103" lon="135.554875">
 <ele>772.4</ele>
 <time>2020-03-24T13:23:24Z</time>
</trkpt>
<trkpt lat="34.376223" lon="135.554853">
 <ele>766.4</ele>
 <time>2020-03-24T13:23:24Z</time>
</trkpt>
<trkpt lat="34.376284" lon="135.554778">
 <ele>760.7</ele>
 <time>2020-03-24T13:23:24Z</time>
</trkpt>
<trkpt lat="34.376352" lon="135.554789">
 <ele>756.7</ele>
 <time>2020-03-24T13:23:24Z</time>
</trkpt>
<trkpt lat="34.376455" lon="135.554789">
 <ele>750.5</ele>
 <time>2020-03-24T13:23:24Z</time>
</trkpt>
<trkpt lat="34.376455" lon="135.554885">
 <ele>750.6</ele>
 <time>2020-03-24T13:23:25Z</time>
</trkpt>
<trkpt lat="34.376438" lon="135.555025">
 <ele>750.6</ele>
 <time>2020-03-24T13:23:25Z</time>
</trkpt>
<trkpt lat="34.376421" lon="135.555186">
 <ele>746.6</ele>
 <time>2020-03-24T13:23:25Z</time>
</trkpt>
<trkpt lat="34.376464" lon="135.555261">
 <ele>740.8</ele>
 <time>2020-03-24T13:23:25Z</time>
</trkpt>
<trkpt lat="34.376507" lon="135.555250">
 <ele>738.4</ele>
 <time>2020-03-24T13:23:25Z</time>
</trkpt>
<trkpt lat="34.376558" lon="135.555196">
 <ele>737.7</ele>
 <time>2020-03-24T13:23:25Z</time>
</trkpt>
<trkpt lat="34.376610" lon="135.555078">
 <ele>737</ele>
 <time>2020-03-24T13:23:25Z</time>
</trkpt>
<trkpt lat="34.376661" lon="135.554939">
 <ele>737.5</ele>
 <time>2020-03-24T13:23:25Z</time>
</trkpt>
<trkpt lat="34.376721" lon="135.554800">
 <ele>734</ele>
 <time>2020-03-24T13:23:26Z</time>
</trkpt>
<trkpt lat="34.376824" lon="135.554606">
 <ele>727.4</ele>
 <time>2020-03-24T13:23:26Z</time>
</trkpt>
<trkpt lat="34.376902" lon="135.554521">
 <ele>722.9</ele>
 <time>2020-03-24T13:23:26Z</time>
</trkpt>
<trkpt lat="34.376970" lon="135.554403">
 <ele>716.3</ele>
 <time>2020-03-24T13:23:26Z</time>
</trkpt>
<trkpt lat="34.377150" lon="135.554327">
 <ele>709.7</ele>
 <time>2020-03-24T13:23:26Z</time>
</trkpt>
<trkpt lat="34.377253" lon="135.554327">
 <ele>706.5</ele>
 <time>2020-03-24T13:23:26Z</time>
</trkpt>
<trkpt lat="34.377399" lon="135.554317">
 <ele>700.8</ele>
 <time>2020-03-24T13:23:26Z</time>
</trkpt>
<trkpt lat="34.377545" lon="135.554338">
 <ele>693</ele>
 <time>2020-03-24T13:23:27Z</time>
</trkpt>
<trkpt lat="34.377674" lon="135.554338">
 <ele>685.8</ele>
 <time>2020-03-24T13:23:27Z</time>
</trkpt>
<trkpt lat="34.377794" lon="135.554360">
 <ele>681.6</ele>
 <time>2020-03-24T13:23:27Z</time>
</trkpt>
<trkpt lat="34.377949" lon="135.554370">
 <ele>673.3</ele>
 <time>2020-03-24T13:23:27Z</time>
</trkpt>
<trkpt lat="34.378052" lon="135.554349">
 <ele>669.1</ele>
 <time>2020-03-24T13:23:27Z</time>
</trkpt>
<trkpt lat="34.378180" lon="135.554370">
 <ele>664.8</ele>
 <time>2020-03-24T13:23:27Z</time>
</trkpt>
<trkpt lat="34.378326" lon="135.554403">
 <ele>657.7</ele>
 <time>2020-03-24T13:23:27Z</time>
</trkpt>
<trkpt lat="34.378421" lon="135.554403">
 <ele>654.6</ele>
 <time>2020-03-24T13:23:27Z</time>
</trkpt>
<trkpt lat="34.378498" lon="135.554403">
 <ele>652</ele>
 <time>2020-03-24T13:23:28Z</time>
</trkpt>
<trkpt lat="34.378575" lon="135.554403">
 <ele>649.2</ele>
 <time>2020-03-24T13:23:28Z</time>
</trkpt>
<trkpt lat="34.378747" lon="135.554445">
 <ele>641.9</ele>
 <time>2020-03-24T13:23:28Z</time>
</trkpt>
<trkpt lat="34.378936" lon="135.554478">
 <ele>631.9</ele>
 <time>2020-03-24T13:23:28Z</time>
</trkpt>
<trkpt lat="34.379073" lon="135.554521">
 <ele>628.3</ele>
 <time>2020-03-24T13:23:28Z</time>
</trkpt>
<trkpt lat="34.379150" lon="135.554596">
 <ele>623.8</ele>
 <time>2020-03-24T13:23:28Z</time>
</trkpt>
<trkpt lat="34.379133" lon="135.554714">
 <ele>624.3</ele>
 <time>2020-03-24T13:23:28Z</time>
</trkpt>
<trkpt lat="34.379185" lon="135.554800">
 <ele>620.4</ele>
 <time>2020-03-24T13:23:28Z</time>
</trkpt>
<trkpt lat="34.379245" lon="135.554939">
 <ele>616.5</ele>
 <time>2020-03-24T13:23:29Z</time>
</trkpt>
<trkpt lat="34.379322" lon="135.555132">
 <ele>610</ele>
 <time>2020-03-24T13:23:29Z</time>
</trkpt>
<trkpt lat="34.379399" lon="135.555132">
 <ele>606.8</ele>
 <time>2020-03-24T13:23:29Z</time>
</trkpt>
<trkpt lat="34.379519" lon="135.555207">
 <ele>600.6</ele>
 <time>2020-03-24T13:23:29Z</time>
</trkpt>
<trkpt lat="34.379597" lon="135.555175">
 <ele>596.4</ele>
 <time>2020-03-24T13:23:29Z</time>
</trkpt>
<trkpt lat="34.379725" lon="135.555111">
 <ele>584.9</ele>
 <time>2020-03-24T13:23:29Z</time>
</trkpt>
<trkpt lat="34.379846" lon="135.555100">
 <ele>578</ele>
 <time>2020-03-24T13:23:29Z</time>
</trkpt>
<trkpt lat="34.379974" lon="135.555078">
 <ele>571.3</ele>
 <time>2020-03-24T13:23:30Z</time>
</trkpt>
<trkpt lat="34.380069" lon="135.555089">
 <ele>566.6</ele>
 <time>2020-03-24T13:23:30Z</time>
</trkpt>
<trkpt lat="34.380197" lon="135.555089">
 <ele>564.5</ele>
 <time>2020-03-24T13:23:30Z</time>
</trkpt>
<trkpt lat="34.380343" lon="135.555078">
 <ele>565.5</ele>
 <time>2020-03-24T13:23:30Z</time>
</trkpt>
<trkpt lat="34.380455" lon="135.555111">
 <ele>565.9</ele>
 <time>2020-03-24T13:23:30Z</time>
</trkpt>
<trkpt lat="34.380584" lon="135.555143">
 <ele>564.3</ele>
 <time>2020-03-24T13:23:30Z</time>
</trkpt>
<trkpt lat="34.380644" lon="135.555207">
 <ele>562.3</ele>
 <time>2020-03-24T13:23:30Z</time>
</trkpt>
<trkpt lat="34.380678" lon="135.555368">
 <ele>559.7</ele>
 <time>2020-03-24T13:23:30Z</time>
</trkpt>
<trkpt lat="34.380704" lon="135.555572">
 <ele>551.6</ele>
 <time>2020-03-24T13:23:31Z</time>
</trkpt>
<trkpt lat="34.380730" lon="135.555733">
 <ele>539.6</ele>
 <time>2020-03-24T13:23:31Z</time>
</trkpt>
<trkpt lat="34.380738" lon="135.555840">
 <ele>531.4</ele>
 <time>2020-03-24T13:23:31Z</time>
</trkpt>
<trkpt lat="34.380764" lon="135.555926">
 <ele>525</ele>
 <time>2020-03-24T13:23:31Z</time>
</trkpt>
<trkpt lat="34.380644" lon="135.556033">
 <ele>519.2</ele>
 <time>2020-03-24T13:23:31Z</time>
</trkpt>
<trkpt lat="34.380524" lon="135.556066">
 <ele>518.2</ele>
 <time>2020-03-24T13:23:31Z</time>
</trkpt>
<trkpt lat="34.380352" lon="135.556141">
 <ele>517.6</ele>
 <time>2020-03-24T13:23:31Z</time>
</trkpt>
<trkpt lat="34.380292" lon="135.556291">
 <ele>516.3</ele>
 <time>2020-03-24T13:23:32Z</time>
</trkpt>
<trkpt lat="34.380335" lon="135.556387">
 <ele>513.8</ele>
 <time>2020-03-24T13:23:32Z</time>
</trkpt>
<trkpt lat="34.380438" lon="135.556366">
 <ele>511.2</ele>
 <time>2020-03-24T13:23:32Z</time>
</trkpt>
<trkpt lat="34.380567" lon="135.556291">
 <ele>510.4</ele>
 <time>2020-03-24T13:23:32Z</time>
</trkpt>
<trkpt lat="34.380747" lon="135.556237">
 <ele>507.8</ele>
 <time>2020-03-24T13:23:32Z</time>
</trkpt>
<trkpt lat="34.380893" lon="135.556334">
 <ele>503.2</ele>
 <time>2020-03-24T13:23:32Z</time>
</trkpt>
<trkpt lat="34.381039" lon="135.556452">
 <ele>499.1</ele>
 <time>2020-03-24T13:23:32Z</time>
</trkpt>
<trkpt lat="34.381176" lon="135.556645">
 <ele>495.3</ele>
 <time>2020-03-24T13:23:32Z</time>
</trkpt>
<trkpt lat="34.381262" lon="135.556870">
 <ele>491.6</ele>
 <time>2020-03-24T13:23:33Z</time>
</trkpt>
<trkpt lat="34.381253" lon="135.557063">
 <ele>490.2</ele>
 <time>2020-03-24T13:23:33Z</time>
</trkpt>
<trkpt lat="34.381227" lon="135.557246">
 <ele>489</ele>
 <time>2020-03-24T13:23:33Z</time>
</trkpt>
<trkpt lat="34.381202" lon="135.557471">
 <ele>484.9</ele>
 <time>2020-03-24T13:23:33Z</time>
</trkpt>
<trkpt lat="34.381202" lon="135.557610">
 <ele>483.1</ele>
 <time>2020-03-24T13:23:33Z</time>
</trkpt>
<trkpt lat="34.381236" lon="135.557696">
 <ele>481</ele>
 <time>2020-03-24T13:23:33Z</time>
</trkpt>
<trkpt lat="34.381287" lon="135.557696">
 <ele>479.7</ele>
 <time>2020-03-24T13:23:33Z</time>
</trkpt>
<trkpt lat="34.381339" lon="135.557643">
 <ele>478.8</ele>
 <time>2020-03-24T13:23:33Z</time>
</trkpt>
<trkpt lat="34.381382" lon="135.557471">
 <ele>477.7</ele>
 <time>2020-03-24T13:23:34Z</time>
</trkpt>
<trkpt lat="34.381476" lon="135.557278">
 <ele>476.8</ele>
 <time>2020-03-24T13:23:34Z</time>
</trkpt>
<trkpt lat="34.381579" lon="135.557149">
 <ele>474.6</ele>
 <time>2020-03-24T13:23:34Z</time>
</trkpt>
<trkpt lat="34.381639" lon="135.557213">
 <ele>471.5</ele>
 <time>2020-03-24T13:23:34Z</time>
</trkpt>
<trkpt lat="34.381639" lon="135.557321">
 <ele>471</ele>
 <time>2020-03-24T13:23:34Z</time>
</trkpt>
<trkpt lat="34.381605" lon="135.557664">
 <ele>466.7</ele>
 <time>2020-03-24T13:23:34Z</time>
</trkpt>
<trkpt lat="34.381562" lon="135.557836">
 <ele>465</ele>
 <time>2020-03-24T13:23:34Z</time>
</trkpt>
<trkpt lat="34.381519" lon="135.558007">
 <ele>465.2</ele>
 <time>2020-03-24T13:23:35Z</time>
</trkpt>
<trkpt lat="34.381588" lon="135.558083">
 <ele>465</ele>
 <time>2020-03-24T13:23:35Z</time>
</trkpt>
<trkpt lat="34.381674" lon="135.558061">
 <ele>463.6</ele>
 <time>2020-03-24T13:23:35Z</time>
</trkpt>
<trkpt lat="34.381820" lon="135.557943">
 <ele>461</ele>
 <time>2020-03-24T13:23:35Z</time>
</trkpt>
<trkpt lat="34.381940" lon="135.557696">
 <ele>457.7</ele>
 <time>2020-03-24T13:23:35Z</time>
</trkpt>
<trkpt lat="34.381957" lon="135.557535">
 <ele>455.8</ele>
 <time>2020-03-24T13:23:35Z</time>
</trkpt>
<trkpt lat="34.381940" lon="135.557374">
 <ele>456.5</ele>
 <time>2020-03-24T13:23:35Z</time>
</trkpt>
<trkpt lat="34.381914" lon="135.557020">
 <ele>454.9</ele>
 <time>2020-03-24T13:23:35Z</time>
</trkpt>
<trkpt lat="34.381905" lon="135.556688">
 <ele>455.4</ele>
 <time>2020-03-24T13:23:36Z</time>
</trkpt>
<trkpt lat="34.381957" lon="135.556602">
 <ele>453.2</ele>
 <time>2020-03-24T13:23:36Z</time>
</trkpt>
<trkpt lat="34.382051" lon="135.556634">
 <ele>449.2</ele>
 <time>2020-03-24T13:23:36Z</time>
</trkpt>
<trkpt lat="34.382103" lon="135.556720">
 <ele>446.7</ele>
 <time>2020-03-24T13:23:36Z</time>
</trkpt>
<trkpt lat="34.382120" lon="135.556870">
 <ele>442.7</ele>
 <time>2020-03-24T13:23:36Z</time>
</trkpt>
<trkpt lat="34.382129" lon="135.557053">
 <ele>439.9</ele>
 <time>2020-03-24T13:23:36Z</time>
</trkpt>
<trkpt lat="34.382180" lon="135.557278">
 <ele>437</ele>
 <time>2020-03-24T13:23:36Z</time>
</trkpt>
<trkpt lat="34.382232" lon="135.557482">
 <ele>433.9</ele>
 <time>2020-03-24T13:23:36Z</time>
</trkpt>
<trkpt lat="34.382266" lon="135.557696">
 <ele>430.8</ele>
 <time>2020-03-24T13:23:37Z</time>
</trkpt>
<trkpt lat="34.382317" lon="135.557846">
 <ele>429.7</ele>
 <time>2020-03-24T13:23:37Z</time>
</trkpt>
<trkpt lat="34.382420" lon="135.557975">
 <ele>427.1</ele>
 <time>2020-03-24T13:23:37Z</time>
</trkpt>
<trkpt lat="34.382704" lon="135.558201">
 <ele>422.3</ele>
 <time>2020-03-24T13:23:37Z</time>
</trkpt>
<trkpt lat="34.382918" lon="135.558404">
 <ele>419.6</ele>
 <time>2020-03-24T13:23:37Z</time>
</trkpt>
<trkpt lat="34.383150" lon="135.558576">
 <ele>412.9</ele>
 <time>2020-03-24T13:23:37Z</time>
</trkpt>
<trkpt lat="34.383390" lon="135.558673">
 <ele>408.8</ele>
 <time>2020-03-24T13:23:37Z</time>
</trkpt>
<trkpt lat="34.383476" lon="135.558780">
 <ele>406.4</ele>
 <time>2020-03-24T13:23:37Z</time>
</trkpt>
</trkseg>
</trk>
</gpx>

